CAPE
6 5 3 4 2 2 4 2 2 4 4 2 1 1 0 0 0 0 0 0 0 0 0 0 0 0 0 0 0 0 0 0 0 0 0 0 0 0 0 0 0 0 0 0 55
4 6 6 4 4 3 3 3 2 2 2 2 2 2 2 1 0 0 0 0 0 0 0 0 0 0 0 0 0 0 0 0 0 0 0 0 0 0 0 0 0 0 0 0 0
6 7 7 5 5 3 4 2 1 1 3 3 3 3 2 0 0 0 0 0 0 0 0 0 0 0 0 0 0 0 0 0 0 0 0 0 0 0 0 0 0 0 0 0 0
10 10 8 7 6 4 4 2 2 2 2 1 3 1 0 0 0 0 0 0 0 0 0 0 0 0 0 0 0 0 0 0 0 0 0 0 0 0 0 0 0 0 0 0 0
8 7 7 7 6 4 4 3 4 6 2 1 0 0 0 0 0 0 0 0 0 0 0 0 0 0 0 0 0 0 0 0 0 0 0 0 0 0 0 0 0 0 0 0 0
8 5 6 4 2 1 2 3 1 4 1 0 0 0 0 0 0 0 0 0 0 0 0 0 0 0 0 0 0 0 0 0 0 0 0 0 0 0 0 0 0 0 0 0 0
6 6 7 4 3 1 1 0 2 2 0 0 0 0 0 0 0 0 0 0 0 0 0 0 0 0 0 0 0 0 0 0 0 0 0 0 0 0 0 0 0 0 0 0 0
8 9 3 2 2 1 0 0 1 0 0 0 0 0 0 0 0 0 0 0 0 0 0 0 0 0 0 0 0 0 0 0 0 0 0 0 0 0 0 0 0 0 0 0 0
6 9 3 3 2 1 0 1 0 0 0 0 0 0 0 0 0 0 0 0 0 0 0 0 0 0 0 0 0 0 0 0 0 0 0 0 0 0 0 0 0 0 0 0 0
3 9 4 2 3 1 0 0 0 0 0 0 0 0 0 0 0 0 0 0 0 0 0 0 0 0 0 0 0 0 0 0 0 0 0 0 0 0 0 0 0 0 0 0 0
2 6 6 2 2 1 0 0 0 0 0 0 0 0 0 0 0 0 0 0 0 0 0 0 0 0 0 0 0 0 0 0 0 0 0 0 0 0 0 0 0 0 0 0 0
3 5 3 2 0 0 0 0 0 0 0 0 0 0 0 0 0 0 0 0 0 0 0 0 0 0 0 0 0 0 0 0 0 0 0 0 0 0 0 0 0 0 0 0 0
7 3 2 2 0 0 0 0 0 0 0 0 0 0 0 0 0 0 0 0 0 0 0 0 0 5 0 0 0 0 0 1 1 4 0 0 0 0 0 0 0 0 0 0 0
15 5 5 1 0 0 0 0 0 0 0 0 0 0 0 0 0 0 0 0 0 0 0 2 0 0 7 7 4 10 0 1 11 31 5 2 0 0 0 0 0 0 0 0 0
11 8 6 1 0 0 0 0 0 0 0 0 0 0 0 0 0 0 0 0 0 1 14 5 29 54 80 40 30 17 7 15 25 27 32 1 2 0 0 0 0 0 0 0 0
7 6 1 0 0 0 0 0 0 1 0 0 0 0 0 0 0 0 0 0 2 19 81 58 109 101 83 80 84 39 37 37 50 47 55 0 16 0 0 0 0 0 0 0 0
3 1 0 0 0 0 0 0 0 0 0 0 0 0 0 0 0 0 0 0 72 80 98 106 130 119 172 143 80 39 87 103 67 67 29 4 26 0 0 0 0 0 0 0 0
0 0 0 0 0 0 0 0 0 0 0 0 0 0 0 0 0 0 0 30 96 123 160 139 120 101 0 125 110 47 71 140 68 38 11 12 19 0 0 0 0 0 0 0 0
0 0 0 0 0 0 0 2 0 0 0 3 3 2 6 1 0 2 22 34 104 145 155 128 91 37 4 16 241 132 105 88 19 26 60 0 8 0 0 0 0 0 0 0 0
0 0 0 0 0 0 0 0 0 0 1 9 22 8 20 25 10 12 11 32 69 88 178 137 167 87 74 1 56 240 136 103 51 61 68 9 0 0 0 0 0 0 0 0 0
0 2 0 0 0 0 0 0 0 0 1 11 19 26 28 19 24 33 30 49 70 97 128 146 207 171 80 0 96 41 95 36 93 74 29 32 0 3 0 0 0 0 0 0 0
0 0 0 0 1 0 0 0 0 1 12 16 27 30 27 32 30 31 38 76 81 149 166 114 202 230 165 1 2 32 122 182 177 123 12 2 25 0 20 0 0 0 0 0 0
0 0 0 0 0 0 0 0 0 4 8 12 18 26 30 38 31 27 35 43 50 86 120 231 226 237 169 124 95 129 97 166 252 191 121 59 14 2 0 0 0 0 0 0 0
0 0 0 0 0 0 0 0 1 2 2 19 15 19 33 38 35 19 18 12 28 59 51 87 167 179 270 132 90 74 112 102 193 255 93 86 60 40 9 0 0 0 0 0 0
0 1 0 2 8 0 1 0 1 6 12 18 12 20 18 29 27 26 9 19 24 27 74 52 147 164 166 107 68 45 52 114 152 109 146 66 42 24 7 1 0 0 0 0 0
8 12 7 10 12 14 2 1 4 8 4 2 10 12 15 13 9 14 16 24 35 22 46 54 48 59 79 67 48 31 16 16 26 28 52 21 8 0 0 0 0 0 0 0 0
7 0 4 3 10 11 10 5 6 18 2 4 16 20 31 22 19 21 13 16 15 39 20 51 46 44 28 6 6 15 32 28 10 13 27 24 15 0 0 0 0 0 0 0 0
CIN
0 0 0 0 0 0 0 0 0 0 0 0 0 0 0 0 0 0 0 0 0 0 0 0 0 0 0 0 0 0 0 0 0 0 0 0 0 0 0 0 0 0 0 0 -157
0 0 0 0 0 0 0 0 0 0 0 0 0 0 0 0 0 0 0 0 0 0 0 0 0 0 0 0 0 0 0 0 0 0 0 0 0 0 0 0 0 0 0 0 0
0 0 0 0 0 0 0 0 0 0 0 0 0 0 0 0 0 0 0 0 0 0 0 0 0 0 0 0 0 0 0 0 0 0 0 0 0 0 0 0 0 0 0 0 0
0 0 0 0 0 0 0 0 0 0 0 0 0 0 0 0 0 0 0 0 0 0 0 0 0 0 0 0 0 0 0 0 0 0 0 0 0 0 0 0 0 0 0 0 0
0 0 0 0 0 0 0 0 0 0 0 0 0 0 0 0 0 0 0 0 0 0 0 0 0 0 0 0 0 0 0 0 0 0 0 0 0 0 0 0 0 0 0 0 0
0 0 0 0 0 0 0 0 0 0 0 0 0 0 0 0 0 0 0 0 0 0 0 0 0 0 0 0 0 0 0 0 0 0 0 0 0 0 0 0 0 0 0 0 0
0 0 0 0 0 0 0 0 0 0 0 0 0 0 0 0 0 0 0 0 0 0 0 0 0 0 0 0 0 0 0 0 0 0 0 0 0 0 0 0 0 0 0 0 0
0 0 0 0 0 0 0 0 0 0 0 0 0 0 0 0 0 0 0 0 0 0 0 0 0 0 0 0 0 0 0 0 0 0 0 0 0 0 0 0 0 0 0 0 0
0 0 0 0 0 0 0 0 0 0 0 0 0 0 0 0 0 0 0 0 0 0 0 0 0 0 0 0 0 0 0 0 0 0 0 0 0 0 0 0 0 0 0 0 0
0 0 0 0 0 0 0 0 0 0 0 0 0 0 0 0 0 0 0 0 0 0 0 0 0 0 0 0 0 0 0 0 0 0 0 0 0 0 0 0 0 0 0 0 0
0 0 0 0 0 0 0 0 0 0 0 0 0 0 0 0 0 0 0 0 0 0 0 0 0 0 0 0 0 0 0 0 0 0 0 0 0 0 0 0 0 0 0 0 0
0 0 0 0 0 0 0 0 0 0 0 0 0 0 0 0 0 0 0 0 0 0 0 0 0 0 0 0 0 0 0 0 0 0 0 0 0 0 0 0 0 0 0 0 0
0 0 0 0 0 0 0 0 0 0 0 0 0 0 0 0 0 0 0 0 0 0 0 0 0 0 0 0 0 0 0 0 0 0 0 0 0 0 0 0 0 0 0 0 0
0 0 0 0 0 0 0 0 0 0 0 0 0 0 0 0 0 0 0 0 0 0 0 0 0 0 0 0 0 0 0 0 0 0 0 0 0 0 0 0 0 0 0 0 0
0 0 0 -1 0 0 0 0 0 0 0 0 0 0 0 0 0 0 0 0 0 0 0 0 0 0 0 0 0 0 0 0 0 0 0 0 0 0 0 0 0 0 0 0 0
0 0 0 0 0 0 0 0 0 0 0 0 0 0 0 0 0 0 0 0 0 0 0 0 0 0 0 0 0 0 -1 0 0 0 0 0 0 0 0 0 0 0 0 0 0
0 0 0 0 0 0 0 0 0 0 0 0 0 0 0 0 0 0 0 0 0 0 0 0 0 -8 -1 0 0 0 0 0 0 0 0 0 0 0 0 0 0 0 0 0 0
0 0 0 0 0 0 0 0 0 0 0 0 0 0 0 0 0 0 0 0 0 0 0 0 0 -3 -4 -8 0 -1 0 0 0 0 0 0 0 0 0 0 0 0 0 0 0
0 0 0 0 0 0 0 0 0 0 0 0 0 0 0 0 0 0 -3 -3 0 0 0 0 -1 0 -30 -10 0 0 0 0 -4 0 0 0 0 0 0 0 0 0 0 0 0
0 0 0 0 0 0 0 0 0 0 0 0 0 0 0 0 0 0 -6 -1 -1 -1 0 0 -1 0 -6 0 -14 0 0 -1 -1 0 0 0 0 0 0 0 0 0 0 0 0
0 0 0 0 0 0 0 0 0 0 0 0 0 0 0 0 0 -10 -4 -1 0 0 0 0 0 0 0 0 0 -1 0 -6 0 0 0 0 0 0 0 0 0 0 0 0 0
0 0 0 0 0 0 0 0 0 0 0 0 0 0 0 0 0 0 -3 0 0 0 0 0 0 0 0 -4 -30 -13 -11 -3 0 0 -12 -1 0 0 -7 0 0 0 0 0 0
0 0 0 0 0 0 0 0 0 0 0 0 0 0 0 0 0 0 -2 -1 -1 0 0 0 0 0 0 -1 -2 0 -2 -1 0 -2 -1 0 0 0 0 0 0 0 0 0 0
0 0 0 0 0 0 0 0 0 0 0 0 0 0 0 0 0 0 0 0 -1 0 0 -1 0 0 0 -1 -3 0 0 0 0 0 0 0 0 0 0 0 0 0 0 0 0
0 0 0 0 0 0 0 0 0 0 0 0 0 0 0 0 0 0 0 0 0 -2 0 -3 0 0 0 -2 -4 -6 -1 0 0 0 0 0 0 0 0 0 0 0 0 0 0
0 0 0 0 0 0 0 0 0 0 0 0 0 0 0 0 0 0 0 0 0 0 0 -3 -24 -18 -22 -10 -13 -25 -40 -14 -1 0 0 0 0 0 0 0 0 0 0 0 0
0 0 0 0 0 0 0 0 0 0 0 0 0 0 0 0 0 0 0 0 0 0 0 -13 -19 -17 -30 -29 -8 -36 -16 -3 -1 0 0 0 0 0 0 0 0 0 0 0 0
Wind_Speed
14 14 15 15 16 16 16 15 15 15 15 15 16 16 17 18 21 14 10 7 7 12 14 11 9 7 11 16 17 13 14 17 23 19 12 6 15 16 8 11 9 2 4 6 1
15 16 16 16 17 17 17 16 15 14 14 15 15 15 17 17 17 8 6 3 7 9 9 10 14 13 14 17 13 18 17 26 18 14 9 16 16 11 7 15 14 9 8 5 5
16 17 17 17 17 16 16 16 15 15 14 14 14 14 15 17 9 5 11 5 9 15 5 8 12 15 21 16 23 22 26 21 21 15 13 19 19 14 14 16 15 13 10 2 2
17 17 17 17 17 17 16 16 16 17 18 17 14 13 14 8 4 4 2 5 9 10 5 5 9 18 20 27 22 27 26 26 27 16 12 21 18 24 23 20 18 5 9 12 13
18 18 18 18 18 17 15 15 14 14 14 14 11 11 9 6 5 5 5 5 5 3 7 8 11 14 25 19 25 29 29 24 24 23 17 18 24 23 23 22 19 19 16 19 17
18 19 19 20 19 19 17 15 13 12 11 10 8 8 5 4 5 4 8 11 6 7 2 8 9 10 16 23 26 20 25 30 28 20 21 24 28 21 26 22 22 22 22 22 19
17 18 19 19 20 20 19 17 13 11 8 4 5 6 4 7 6 10 11 8 6 8 10 6 12 12 6 15 21 24 28 26 25 28 28 19 30 37 28 25 24 20 21 21 21
19 18 19 20 21 22 22 21 18 12 4 6 7 4 5 0 8 10 9 9 3 8 10 8 9 15 18 16 18 17 23 25 33 25 24 22 30 36 27 25 26 27 22 22 23
20 19 21 21 22 23 23 22 13 2 7 9 7 6 2 2 11 10 7 10 12 8 6 7 7 15 14 18 18 21 24 31 29 28 24 22 37 34 30 22 23 21 21 20 20
21 19 20 21 21 21 23 18 8 11 6 5 3 6 5 9 15 16 6 7 7 9 10 11 9 13 14 17 23 26 27 28 28 22 27 29 35 28 22 13 24 23 22 21 20
22 20 20 21 20 19 16 6 6 8 6 7 5 5 7 14 13 8 7 8 8 9 13 12 12 15 17 20 26 25 27 26 20 21 28 29 35 29 27 28 25 23 22 22 22
22 21 21 20 19 19 10 4 5 6 8 4 6 6 8 5 12 10 8 7 8 13 11 10 16 16 13 17 21 23 26 30 19 17 21 26 31 27 26 28 27 26 25 24 23
21 21 20 18 18 9 4 5 4 6 8 2 3 6 4 10 10 11 11 8 14 16 14 15 16 11 11 14 20 24 25 24 27 17 22 20 27 26 23 21 20 23 23 24 23
21 22 18 16 9 2 1 3 7 4 7 6 5 4 5 13 8 11 2 11 14 17 15 16 13 14 15 20 19 21 23 25 24 23 20 21 21 22 24 28 28 27 25 24 23
25 22 15 7 5 2 5 5 2 6 5 3 2 4 10 8 9 1 8 8 16 18 15 18 19 17 18 19 20 21 19 25 20 22 25 29 20 16 18 21 21 19 20 21 21
27 23 6 5 4 2 5 1 6 8 0 1 3 9 11 9 4 7 12 12 12 15 15 19 17 18 22 21 24 22 19 21 20 19 22 26 23 19 20 22 18 17 17 17 12
28 18 6 1 4 2 4 5 7 6 2 2 9 12 16 8 10 9 14 11 8 9 11 15 10 10 15 18 20 17 18 13 18 21 18 20 20 18 7 7 6 1 6 9 7
26 9 4 2 5 5 5 7 6 2 5 10 11 17 7 9 8 13 11 12 4 9 13 9 12 3 6 16 21 20 19 15 21 17 22 26 22 18 21 22 23 14 4 5 6
24 3 3 4 3 5 8 5 2 5 5 10 16 8 3 5 9 12 12 8 5 7 9 13 9 17 3 12 20 21 20 20 24 20 16 19 25 24 14 10 10 9 6 5 8
6 4 4 7 4 7 5 4 3 3 8 9 12 4 13 14 12 11 10 4 8 2 7 12 18 11 2 6 20 24 19 15 13 16 17 15 22 13 21 24 11 5 3 8 11
5 5 6 6 5 3 3 5 6 4 8 7 10 13 13 11 11 12 6 13 4 10 15 15 10 15 12 2 11 12 17 10 16 14 17 12 13 15 7 11 11 4 7 11 14
5 3 5 4 3 1 4 7 4 3 3 9 8 11 10 12 11 13 12 9 16 14 18 9 8 13 18 7 10 2 10 7 12 14 17 17 5 6 18 13 6 5 9 14 16
7 3 2 6 3 5 5 7 4 6 6 5 8 7 12 15 8 8 14 8 15 15 6 8 4 11 9 7 11 6 9 13 14 7 16 16 8 12 9 4 7 13 13 14 17
5 4 2 3 2 5 8 2 4 1 11 4 11 14 12 10 13 10 18 10 12 14 14 12 9 13 14 18 6 10 10 12 12 12 16 16 20 13 14 13 14 16 15 18 18
3 2 4 4 2 9 7 6 7 5 4 11 6 7 11 11 18 19 10 19 20 22 17 7 13 15 17 19 17 16 18 17 20 18 20 18 19 18 18 16 16 17 19 18 16
5 5 4 9 7 8 1 3 7 5 9 10 12 12 15 17 17 23 20 18 8 12 11 6 10 12 18 17 17 20 20 21 22 22 19 22 25 24 23 22 20 18 16 15 15
2 1 2 6 5 5 3 6 10 13 9 9 10 14 18 19 18 22 21 21 16 11 13 9 8 8 13 10 10 13 16 18 21 20 18 22 20 19 20 21 18 17 16 16 15
Wind_Direction
351 346 343 340 338 336 334 332 329 328 325 319 318 320 319 320 311 285 269 22 306 313 299 271 259 218 231 225 224 232 240 242 242 232 243 238 249 243 249 261 215 285 76 49 115
345 342 340 338 335 333 331 328 327 324 318 312 311 317 318 319 302 274 45 302 321 317 283 258 235 207 210 218 215 219 228 239 247 258 236 247 252 253 236 223 224 219 139 93 97
343 341 340 336 333 331 327 323 322 318 313 307 312 317 314 312 276 78 136 25 351 312 286 275 261 233 226 220 215 221 240 247 245 246 244 251 258 246 245 247 221 217 201 196 307
341 340 338 334 330 328 325 320 316 318 315 314 319 313 312 290 351 68 307 319 301 281 273 252 234 220 231 227 226 240 240 241 260 241 235 249 263 262 251 250 252 203 259 283 283
342 340 337 333 329 326 322 315 311 309 311 304 304 313 296 246 44 94 309 303 266 252 248 254 252 235 236 237 234 237 241 247 244 254 238 254 248 252 250 247 254 257 256 263 272
342 340 337 333 330 328 323 316 313 311 300 291 280 291 287 77 16 333 312 310 293 319 320 245 245 260 282 260 248 239 247 247 252 238 245 242 251 252 246 253 254 259 260 259 256
342 341 338 333 329 327 321 318 321 314 292 264 224 258 271 24 339 320 306 298 296 294 303 283 249 245 275 258 260 258 261 262 248 241 239 245 254 247 247 248 255 254 255 255 256
341 340 339 336 331 328 322 323 320 312 278 187 205 250 294 185 314 295 332 313 211 257 275 293 253 246 253 266 278 262 246 245 239 232 238 229 254 250 242 232 239 253 253 259 262
341 339 338 335 330 327 322 318 312 218 143 161 214 284 53 136 343 343 315 314 320 277 241 268 231 240 239 234 251 240 243 235 245 230 222 216 244 252 256 256 241 246 261 258 261
340 339 334 331 327 324 322 313 125 152 174 213 236 239 219 344 337 326 298 301 299 297 251 237 236 243 229 233 236 237 237 246 259 237 226 223 241 249 259 243 247 244 249 251 254
339 337 332 329 325 323 314 220 229 180 216 304 333 295 309 332 307 295 350 304 265 259 270 231 259 254 261 254 252 264 270 261 263 249 257 229 241 245 246 255 257 255 255 258 261
334 332 329 325 321 317 279 23 39 347 294 274 264 274 274 282 297 310 329 286 303 292 296 249 247 265 285 281 278 258 256 257 256 284 252 245 252 250 244 248 251 255 255 263 270
330 330 326 320 316 286 344 39 23 316 265 305 244 275 300 293 300 294 319 307 295 287 275 267 278 297 255 267 250 254 254 250 254 264 235 250 252 253 247 251 256 257 259 263 266
330 329 323 316 280 8 145 67 313 294 265 130 184 151 274 318 251 297 297 300 286 286 289 277 290 279 263 263 264 266 250 253 251 243 244 218 257 242 237 241 242 247 252 255 261
333 329 322 277 350 262 51 326 331 216 274 66 170 11 297 301 312 259 322 299 291 295 278 267 281 289 268 258 263 267 264 252 237 242 249 248 263 264 260 258 257 254 253 253 259
337 333 316 171 213 15 324 304 199 231 83 137 278 315 312 325 291 296 311 296 269 274 272 270 269 263 274 271 269 266 250 245 243 241 236 235 240 255 253 255 253 249 248 250 260
336 333 250 255 32 301 306 207 244 278 109 38 327 321 315 312 305 342 332 312 332 311 311 308 304 332 288 263 245 240 244 237 218 231 240 227 232 243 212 5 236 119 245 247 282
332 312 167 341 312 284 256 240 268 5 329 334 315 311 302 349 336 335 317 318 298 332 309 329 309 351 358 274 274 227 228 236 224 228 230 226 239 222 227 257 254 292 249 248 332
314 192 197 32 325 282 268 259 280 358 351 319 312 295 330 292 319 314 323 321 333 357 333 316 296 311 277 306 290 240 247 247 269 283 254 219 212 249 253 228 233 221 302 336 332
316 257 73 338 292 266 271 295 292 308 312 302 303 296 317 328 312 327 316 344 300 342 302 304 304 307 170 299 265 249 230 228 245 256 238 224 205 225 210 213 224 130 36 16 1
275 250 50 333 256 254 275 330 312 321 312 306 306 295 302 320 298 309 278 309 26 309 311 308 273 294 293 100 283 219 218 250 269 263 266 223 208 209 230 128 122 90 26 10 8
313 266 34 309 262 280 301 344 354 303 233 287 283 283 293 306 296 294 286 290 314 309 303 326 293 289 293 176 243 308 320 272 252 219 258 282 74 83 117 143 135 45 12 358 353
326 304 84 286 351 341 338 295 276 291 324 297 288 281 306 291 306 301 293 298 309 301 329 4 274 308 297 170 218 236 272 258 240 293 268 257 242 154 158 188 347 337 344 335 336
306 319 115 49 43 327 345 302 303 260 288 264 282 290 287 295 285 274 290 301 292 301 303 300 262 268 280 298 278 273 267 252 256 261 253 249 269 219 227 303 314 308 324 320 325
357 33 0 314 318 329 301 284 298 316 276 300 286 271 303 298 310 284 301 304 296 283 271 243 264 266 273 275 276 274 269 262 259 257 266 265 271 271 277 293 308 305 305 308 320
342 341 347 298 292 292 67 290 303 318 303 288 283 288 303 286 278 288 294 295 263 294 283 238 268 287 286 278 261 262 261 260 256 249 251 258 266 269 280 281 283 288 300 309 314
81 81 284 304 294 301 333 334 309 315 294 257 294 290 290 293 305 298 291 282 269 263 269 285 260 272 274 286 291 274 265 261 253 249 253 256 264 272 269 269 275 283 291 293 302